KE5AKC Weather Reports


time (UTC)temp
C
wind
direction
speed
KPH
gust
KPH
rain 1hr
cm
rain 24hr
cm
rain mn
cm
humidity
%
barometer
mb
20260506110131 23 304 0.0 0.0 0.00 0.00 0.00 94 1008.6
20260506105628 23 304 0.0 0.0 0.00 0.00 0.00 93 1008.6
20260506105125 23 290 0.0 0.0 0.00 0.00 0.00 93 1008.6
20260506104623 23 280 0.0 0.0 0.00 0.00 0.00 93 1008.6
20260506104120 23 270 0.0 0.0 0.00 0.00 0.00 93 1008.6
20260506103618 23 333 0.0 0.0 0.00 0.00 0.00 93 1008.3
20260506103114 23 277 0.0 0.0 0.00 0.00 0.00 93 1008.3
20260506102612 23 186 1.6 1.6 0.00 0.00 0.00 93 1008.6
20260506102109 23 274 0.0 0.0 0.00 0.00 0.00 92 1008.6
20260506101606 23 259 0.0 0.0 0.00 0.00 0.00 92 1008.6
20260506101103 23 272 0.0 0.0 0.00 0.00 0.00 92 1008.6
20260506100601 23 180 0.0 1.6 0.00 0.00 0.00 92 1008.3
20260506100059 23 191 1.6 1.6 0.00 0.00 0.00 92 1008.3
20260506095558 23 145 1.6 1.6 0.00 0.00 0.00 92 1008.3
20260506095054 23 183 0.0 1.6 0.00 0.00 0.00 91 1008.3
20260506094552 23 154 4.8 8.0 0.00 0.00 0.00 91 1008.3
20260506094049 23 221 3.2 3.2 0.00 0.00 0.00 92 1008.3
20260506093547 23 234 1.6 1.6 0.00 0.00 0.00 92 1008.3
20260506093044 23 180 4.8 4.8 0.00 0.00 0.00 92 1008.3
20260506092542 23 163 4.8 8.0 0.00 0.00 0.00 92 1008.3
20260506092038 23 182 4.8 9.7 0.00 0.00 0.00 92 1008.3
20260506091537 23 185 3.2 3.2 0.00 0.00 0.00 92 1008.3
20260506091034 23 144 3.2 3.2 0.00 0.00 0.00 91 1008.3
20260506090532 23 221 9.7 11.3 0.00 0.00 0.00 92 1008.0
20260506090028 23 226 1.6 1.6 0.00 0.00 0.00 91 1008.3
20260506085525 23 161 3.2 3.2 0.00 0.00 0.00 91 1008.3
20260506085021 24 178 4.8 8.0 0.00 0.00 0.00 91 1008.3
20260506084518 24 200 1.6 3.2 0.00 0.00 0.00 91 1008.6
20260506084014 24 136 4.8 4.8 0.00 0.00 0.00 91 1008.3
20260506083512 24 130 4.8 8.0 0.00 0.00 0.00 90 1008.6
20260506083009 24 97 4.8 4.8 0.00 0.00 0.00 90 1008.6
20260506082506 24 163 3.2 4.8 0.00 0.00 0.00 89 1008.6
20260506082001 24 152 4.8 4.8 0.00 0.00 0.00 89 1009.0
20260506081500 24 138 6.4 8.0 0.00 0.00 0.00 89 1008.6
20260506080957 25 143 4.8 9.7 0.00 0.00 0.00 88 1009.0
20260506080454 25 189 3.2 3.2 0.00 0.00 0.00 88 1009.0
20260506073437 24 205 1.6 3.2 0.00 0.00 0.00 88 1009.0
20260506072935 25 219 3.2 3.2 0.00 0.00 0.00 88 1009.0
20260506072432 25 280 4.8 8.0 0.00 0.00 0.00 88 1009.0
20260506071930 25 217 1.6 3.2 0.00 0.00 0.00 88 1009.0
20260506071428 25 250 1.6 1.6 0.00 0.00 0.00 87 1009.3
20260506070924 25 165 4.8 8.0 0.00 0.00 0.00 87 1009.7
20260506070421 25 165 4.8 4.8 0.00 0.00 0.00 87 1009.3
20260506062358 25 272 1.6 1.6 0.00 0.00 0.00 87 1009.3
20260506061854 25 237 0.0 1.6 0.00 0.00 0.00 87 1009.7
20260506061351 25 202 1.6 3.2 0.00 0.00 0.00 87 1009.3
20260506060849 25 163 3.2 3.2 0.00 0.00 0.00 87 1009.3
20260506060347 25 170 3.2 4.8 0.00 0.00 0.00 87 1009.3
20260506051319 25 161 4.8 4.8 0.00 0.00 0.00 86 1009.7
20260506050817 25 72 3.2 3.2 0.00 0.00 0.00 87 1009.3
20260506050314 25 200 4.8 9.7 0.00 0.00 0.00 87 1009.3
20260506044804 25 101 4.8 8.0 0.00 0.00 0.00 86 1009.7
20260506044302 25 131 1.6 1.6 0.00 0.00 0.00 86 1009.7
20260506043759 25 166 1.6 3.2 0.00 0.00 0.00 86 1009.7
20260506043256 25 212 4.8 8.0 0.00 0.00 0.00 86 1009.7
20260506042755 25 4 3.2 3.2 0.00 0.00 0.00 85 1009.3
20260506042253 25 187 4.8 4.8 0.00 0.00 0.00 85 1009.3
20260506041751 25 281 4.8 4.8 0.00 0.00 0.00 85 1009.3
20260506041247 25 304 3.2 8.0 0.00 0.00 0.00 84 1009.3
20260506040745 25 150 3.2 3.2 0.00 0.00 0.00 84 1009.3
20260506040242 25 156 4.8 8.0 0.00 0.00 0.00 84 1009.3
20260506035739 25 211 6.4 9.7 0.00 0.00 0.00 84 1009.3
20260506035235 25 151 11.3 14.5 0.00 0.00 0.00 84 1009.3
20260506034732 25 202 4.8 4.8 0.00 0.00 0.00 84 1009.3
20260506034230 25 163 4.8 4.8 0.00 0.00 0.00 84 1009.0
20260506033727 25 184 6.4 9.7 0.00 0.00 0.00 84 1009.0
20260506033224 25 180 3.2 3.2 0.00 0.00 0.00 84 1009.3
20260506032721 25 221 4.8 4.8 0.00 0.00 0.00 84 1009.0
20260506032218 25 156 1.6 1.6 0.00 0.00 0.00 84 1009.0
20260506031715 25 115 4.8 8.0 0.00 0.00 0.00 84 1009.0
20260506031212 25 210 8.0 11.3 0.00 0.00 0.00 84 1008.6
20260506030710 25 89 3.2 4.8 0.00 0.00 0.00 83 1009.0
20260506030207 25 164 8.0 11.3 0.00 0.00 0.00 83 1008.6
20260506025704 25 112 11.3 14.5 0.00 0.00 0.00 83 1008.6
20260506025200 25 146 1.6 4.8 0.00 0.00 0.00 83 1009.0
20260506024658 25 162 6.4 9.7 0.00 0.00 0.00 83 1008.6
20260506024154 25 260 6.4 9.7 0.00 0.00 0.00 83 1008.6
20260506023650 25 176 1.6 3.2 0.00 0.00 0.00 83 1008.6
20260506023147 25 148 1.6 1.6 0.00 0.00 0.00 82 1008.3
20260506022644 25 156 8.0 9.7 0.00 0.00 0.00 82 1008.3
20260506022142 26 164 4.8 4.8 0.00 0.00 0.00 82 1008.3
20260506021640 26 208 4.8 9.7 0.00 0.00 0.00 82 1008.0
20260506021137 26 117 1.6 3.2 0.00 0.00 0.00 82 1008.0
20260506020634 26 223 8.0 11.3 0.00 0.00 0.00 82 1008.0
20260506020131 26 226 3.2 3.2 0.00 0.00 0.00 81 1008.0
20260506015629 26 323 4.8 8.0 0.00 0.00 0.00 81 1007.6
20260506015126 26 148 1.6 1.6 0.00 0.00 0.00 81 1008.0
20260506014623 26 230 8.0 9.7 0.00 0.00 0.00 81 1008.0
20260506014118 26 195 4.8 8.0 0.00 0.00 0.00 81 1007.6
20260506013618 26 179 4.8 4.8 0.00 0.00 0.00 81 1007.6
20260506013113 26 219 3.2 4.8 0.00 0.00 0.00 81 1007.6
20260506012610 26 183 8.0 11.3 0.00 0.00 0.00 80 1007.6
20260506012106 26 166 3.2 3.2 0.00 0.00 0.00 80 1007.3
20260506011604 26 174 1.6 3.2 0.00 0.00 0.00 80 1007.3
20260506011100 26 213 6.4 9.7 0.00 0.00 0.00 79 1007.3
20260506010600 26 237 4.8 9.7 0.00 0.00 0.00 79 1007.3
20260506010055 26 86 4.8 8.0 0.00 0.00 0.00 79 1007.3
20260506005553 26 128 6.4 9.7 0.00 0.00 0.00 79 1007.3
20260506005049 26 278 1.6 3.2 0.00 0.00 0.00 79 1007.3
20260506004547 26 227 3.2 4.8 0.00 0.00 0.00 78 1007.3
20260506004043 26 152 8.0 12.9 0.00 0.00 0.00 78 1007.3
20260506003540 26 195 3.2 4.8 0.00 0.00 0.00 78 1007.3
20260506003036 26 161 4.8 4.8 0.00 0.00 0.00 78 1006.9
20260506002532 26 135 9.7 12.9 0.00 0.00 0.00 77 1006.9
20260506002028 26 189 9.7 12.9 0.00 0.00 0.00 77 1006.9
20260506001524 27 146 11.3 17.7 0.00 0.00 0.00 77 1006.9
20260506001022 27 219 3.2 4.8 0.00 0.00 0.00 77 1006.9
20260506000519 27 145 3.2 3.2 0.00 0.00 0.00 77 1006.9
20260506000016 27 223 4.8 4.8 0.00 0.00 0.00 77 1006.6
20260505235514 27 167 1.6 3.2 0.00 0.00 0.00 77 1006.9
20260505235011 27 198 4.8 8.0 0.00 0.00 0.00 77 1006.6
20260505234508 27 163 6.4 9.7 0.00 0.00 0.00 77 1006.6
20260505234004 27 236 3.2 3.2 0.00 0.00 0.00 77 1006.9
20260505233502 27 176 4.8 4.8 0.00 0.00 0.00 77 1007.3
20260505232959 27 179 3.2 3.2 0.00 0.00 0.00 77 1006.9
20260505232457 27 115 6.4 8.0 0.00 0.00 0.00 77 1006.6
20260505231954 27 151 6.4 9.7 0.00 0.00 0.00 76 1007.3
20260505231451 27 146 6.4 9.7 0.00 0.00 0.00 77 1007.3
20260505230950 27 102 6.4 9.7 0.00 0.00 0.00 77 1007.3
20260505230447 27 242 8.0 16.1 0.00 0.00 0.00 76 1006.9
20260505225943 27 148 8.0 11.3 0.00 0.00 0.00 76 1006.9
20260505225440 27 173 3.2 8.0 0.00 0.00 0.00 76 1006.9
20260505224936 28 259 8.0 12.9 0.00 0.00 0.00 73 1006.6
20260505224433 28 124 4.8 4.8 0.00 0.00 0.00 71 1006.9
20260505223930 28 147 11.3 16.1 0.00 0.00 0.00 69 1006.9
20260505223427 28 147 11.3 16.1 0.00 0.00 0.00 69 1006.9
20260505222923 28 217 0.0 1.6 0.00 0.00 0.00 69 1006.9
20260505222420 28 0 3.2 4.8 0.00 0.00 0.00 69 1006.9
20260505221916 28 260 4.8 4.8 0.00 0.00 0.00 69 1006.9
20260505221414 28 140 8.0 12.9 0.00 0.00 0.00 68 1006.9
20260505220910 28 195 4.8 4.8 0.00 0.00 0.00 69 1006.9
20260505220407 28 162 1.6 3.2 0.00 0.00 0.00 69 1006.9
20260505215905 28 99 6.4 11.3 0.00 0.00 0.00 68 1007.3
20260505215403 28 175 1.6 3.2 0.00 0.00 0.00 69 1006.9
20260505214901 28 232 3.2 4.8 0.00 0.00 0.00 68 1006.9
20260505214358 29 203 3.2 4.8 0.00 0.00 0.00 69 1006.9
20260505213855 28 178 4.8 4.8 0.00 0.00 0.00 69 1007.3
20260505213353 28 226 1.6 1.6 0.00 0.00 0.00 70 1007.3
20260505212849 28 207 4.8 11.3 0.00 0.00 0.00 70 1007.3
20260505212346 29 156 3.2 4.8 0.00 0.00 0.00 69 1007.3
20260505211842 28 143 1.6 3.2 0.00 0.00 0.00 70 1007.3
20260505211340 28 211 6.4 8.0 0.00 0.00 0.00 70 1007.6
20260505210836 29 111 8.0 11.3 0.00 0.00 0.00 69 1007.3
20260505210333 29 184 3.2 3.2 0.00 0.00 0.00 69 1007.3
20260505205830 29 251 1.6 1.6 0.00 0.00 0.00 68 1008.0
20260505205328 28 171 1.6 3.2 0.00 0.00 0.00 70 1007.6
20260505204824 28 245 3.2 4.8 0.00 0.00 0.00 69 1007.6
20260505204323 29 127 8.0 9.7 0.00 0.00 0.00 68 1008.0
20260505203820 29 291 4.8 8.0 0.00 0.00 0.00 67 1008.0
20260505203316 29 159 1.6 3.2 0.00 0.00 0.00 68 1008.0
20260505202812 30 69 4.8 4.8 0.00 0.00 0.00 67 1008.0
20260505202309 30 143 4.8 4.8 0.00 0.00 0.00 67 1008.3
20260505201806 30 169 9.7 11.3 0.00 0.00 0.00 66 1008.0
20260505201303 30 157 1.6 1.6 0.00 0.00 0.00 67 1008.0
20260505200801 29 44 4.8 8.0 0.00 0.00 0.00 68 1008.0
20260505200258 28 237 11.3 16.1 0.00 0.00 0.00 69 1008.3
20260505195753 28 225 4.8 4.8 0.00 0.00 0.00 71 1008.3
20260505195251 29 195 6.4 9.7 0.00 0.00 0.00 69 1008.3
20260505194748 29 244 3.2 4.8 0.00 0.00 0.00 69 1008.3
20260505194244 28 262 4.8 4.8 0.00 0.00 0.00 70 1008.3
20260505193740 28 270 8.0 11.3 0.00 0.00 0.00 70 1008.3
20260505193238 28 311 4.8 8.0 0.00 0.00 0.00 70 1008.6
20260505192736 28 264 0.0 0.0 0.00 0.00 0.00 73 1008.6
20260505192233 28 195 4.8 4.8 0.00 0.00 0.00 72 1008.6
20260505191731 27 137 1.6 1.6 0.00 0.00 0.00 73 1008.6
20260505191230 27 206 0.0 1.6 0.00 0.00 0.00 74 1009.0
20260505190726 27 145 3.2 4.8 0.00 0.00 0.00 73 1009.3
20260505190225 27 153 8.0 12.9 0.00 0.00 0.00 73 1009.3
20260505185722 28 222 4.8 4.8 0.00 0.00 0.00 73 1009.3
20260505185219 28 136 8.0 14.5 0.00 0.00 0.00 73 1009.0
20260505184715 28 225 1.6 1.6 0.00 0.00 0.00 73 1009.3
20260505184212 28 234 8.0 9.7 0.00 0.00 0.00 73 1009.0
20260505183709 28 257 1.6 3.2 0.00 0.00 0.00 73 1009.3
20260505183207 27 315 3.2 3.2 0.00 0.00 0.00 74 1009.3
20260505182702 27 153 1.6 3.2 0.00 0.00 0.00 73 1009.3
20260505182200 27 186 4.8 9.7 0.00 0.00 0.00 74 1009.0
20260505181656 27 88 1.6 1.6 0.00 0.00 0.00 73 1009.0
20260505181154 27 259 3.2 4.8 0.00 0.00 0.00 74 1009.0
20260505180650 27 268 4.8 8.0 0.00 0.00 0.00 74 1009.0
20260505180147 27 231 8.0 12.9 0.00 0.00 0.00 74 1009.0
20260505175643 27 143 3.2 3.2 0.00 0.00 0.00 76 1009.3
20260505175139 27 231 6.4 9.7 0.00 0.00 0.00 75 1009.3
20260505174636 27 256 4.8 4.8 0.00 0.00 0.00 75 1009.3
20260505174132 27 220 4.8 4.8 0.00 0.00 0.00 74 1009.3
20260505173629 27 340 3.2 3.2 0.00 0.00 0.00 75 1009.7
20260505173126 27 133 1.6 3.2 0.00 0.00 0.00 75 1010.0
20260505172624 27 337 3.2 3.2 0.00 0.00 0.00 76 1009.7
20260505172120 26 148 3.2 3.2 0.00 0.00 0.00 76 1009.7
20260505171615 26 116 8.0 12.9 0.00 0.00 0.00 76 1010.0
20260505171112 26 190 1.6 4.8 0.00 0.00 0.00 76 1009.3
20260505170609 26 267 1.6 1.6 0.00 0.00 0.00 78 1009.7
20260505170105 26 290 0.0 0.0 0.00 0.00 0.00 78 1009.7
20260505165600 26 241 1.6 3.2 0.00 0.00 0.00 80 1009.7
20260505165056 26 284 0.0 0.0 0.00 0.00 0.00 80 1009.7
20260505164552 26 6 0.0 1.6 0.00 0.00 0.00 80 1010.0
20260505164050 26 270 0.0 1.6 0.00 0.00 0.00 80 1009.7
20260505163549 26 234 1.6 1.6 0.00 0.00 0.00 79 1009.7
20260505163045 26 76 0.0 1.6 0.00 0.00 0.00 79 1009.7
20260505162538 26 217 3.2 4.8 0.00 0.00 0.00 79 1009.7
20260505162035 26 184 3.2 8.0 0.00 0.00 0.00 79 1009.7
20260505161532 26 149 1.6 3.2 0.00 0.00 0.00 80 1009.7
20260505161029 25 147 0.0 1.6 0.00 0.00 0.00 80 1010.0
20260505160527 25 205 0.0 1.6 0.00 0.00 0.00 79 1009.7
20260505152957 26 155 8.0 9.7 0.00 0.00 0.00 77 1009.3
20260505152455 26 129 3.2 3.2 0.00 0.00 0.00 79 1009.3
20260505151950 25 164 4.8 4.8 0.00 0.00 0.00 80 1009.3
20260505151445 25 120 0.0 1.6 0.00 0.00 0.00 81 1009.7
20260505150943 25 258 1.6 1.6 0.00 0.00 0.00 81 1009.7
20260505150440 25 287 3.2 4.8 0.00 0.00 0.00 81 1009.3
20260505140409 24 164 9.7 12.9 0.00 0.00 0.00 82 1009.3
20260505124817 23 138 3.2 4.8 0.00 0.00 0.00 84 1009.0
20260505124314 23 241 1.6 3.2 0.00 0.00 0.00 84 1009.0
20260505123810 23 150 4.8 8.0 0.00 0.00 0.00 85 1009.0
20260505123307 23 314 0.0 0.0 0.00 0.00 0.00 85 1009.0
20260505122803 23 258 1.6 1.6 0.00 0.00 0.00 85 1009.0
20260505122301 23 243 4.8 4.8 0.00 0.00 0.00 85 1009.0
20260505121757 23 280 3.2 4.8 0.00 0.00 0.00 85 1008.6
20260505121254 23 189 3.2 3.2 0.00 0.00 0.00 85 1008.6
20260505120750 23 220 4.8 4.8 0.00 0.00 0.00 85 1008.6
20260505120247 23 124 4.8 11.3 0.00 0.00 0.00 85 1008.6
20260505115745 23 347 1.6 3.2 0.00 0.00 0.00 85 1008.6
20260505115243 22 206 4.8 8.0 0.00 0.00 0.00 85 1009.0
20260505114740 22 150 1.6 3.2 0.00 0.00 0.00 85 1009.0
20260505114236 22 216 1.6 3.2 0.00 0.00 0.00 85 1009.0
20260505113733 22 224 1.6 3.2 0.00 0.00 0.00 85 1008.6
20260505113230 22 209 1.6 1.6 0.00 0.00 0.00 84 1008.6
20260505112726 22 226 1.6 3.2 0.00 0.00 0.00 84 1008.3
20260505112224 22 230 1.6 1.6 0.00 0.00 0.00 84 1008.3
20260505111723 22 264 0.0 1.6 0.00 0.00 0.00 84 1008.3
20260505111220 22 154 8.0 11.3 0.00 0.00 0.00 84 1008.3
20260505110715 22 263 1.6 3.2 0.00 0.00 0.00 84 1008.6